[Iaude] MPEC M106: 2022 MY2 [a=2.22,e=0.53,i=0.6,H=23.6]

mpec at marsden.cfa.harvard.edu mpec at marsden.cfa.harvard.edu
Thu Jun 30 07:14:34 EDT 2022


M.P.E.C. 2022-M106                                Issued 2022 June 30, 11:13 UT

     The Minor Planet Electronic Circulars contain information on unusual
         minor planets and routine data on comets.  They are published
    on behalf of Division F of the International Astronomical Union by the
          Minor Planet Center, Smithsonian Astrophysical Observatory,
                          Cambridge, MA 02138, U.S.A.

             Prepared using the Tamkin Foundation Computer Network

                              MPC at CFA.HARVARD.EDU
            URL https://www.minorplanetcenter.net/    ISSN 1523-6714

                                    2022 MY2                                    


Observations:
     K22M02Y* C2022 06 27.52302020 41 39.099-11 58 51.50         20.10wUEM106F52
     K22M02Y  C2022 06 27.53453720 41 45.951-11 58 15.04         20.31wUEM106F52
     K22M02Y  C2022 06 27.54599420 41 52.781-11 57 38.78         20.45wUEM106F52
     K22M02Y  C2022 06 27.55745420 41 59.609-11 57 02.29         20.35wUEM106F52
     K22M02Y  C2022 06 27.81796020 44 47.15 -11 43 21.7          20.6 rVEM106N51
     K22M02Y  C2022 06 27.82458820 44 51.17 -11 43 01.4          20.6 rVEM106N51
     K22M02Y bC2022 06 27.94102920 46 06.57 -11 36 53.6          20.3 GVEM106L01
     K22M02Y bC2022 06 27.97727720 46 29.00 -11 34 57.2          20.2 GVEM106L01
     K22M02Y bC2022 06 27.97996120 46 30.65 -11 34 47.9          20.6 GVEM106L01
     K22M02Y bC2022 06 27.98248820 46 32.19 -11 34 39.7          20.3 GVEM106L01
     K22M02Y !C2022 06 28.09098 20 47 41.59 -11 28 28.7          18.6 GVEM106J04
     K22M02Y !C2022 06 28.09249 20 47 42.52 -11 28 23.7          18.9 GVEM106J04
     K22M02Y !C2022 06 28.09400 20 47 43.46 -11 28 19.0          19.4 GVEM106J04
     K22M02Y KC2022 06 28.27196820 49 38.66 -11 18 41.1          20.2 VuEM106H21
     K22M02Y KC2022 06 28.27476620 49 40.41 -11 18 31.7          20.2 VuEM106H21
     K22M02Y KC2022 06 28.34344 20 50 23.74 -11 14 42.1          20.5 RqEM106H36
     K22M02Y KC2022 06 28.34954 20 50 27.52 -11 14 22.2          20.2 RqEM106H36
     K22M02Y KC2022 06 28.35565 20 50 31.27 -11 14 02.1          20.3 RqEM106H36
     K22M02Y  C2022 06 28.43111220 51 19.960-11 09 44.16         20.2 GVEM106654
     K22M02Y  C2022 06 28.45126820 51 32.486-11 08 36.09         20.3 GVEM106654
     K22M02Y  C2022 06 28.47216320 51 45.505-11 07 25.10         20.2 GVEM106654
     K22M02Y  C2022 06 28.84619720 55 53.82 -10 46 04.8          20.6 rVEM106N51
     K22M02Y  C2022 06 28.85271920 55 57.93 -10 45 42.2          20.6 rVEM106N51
     K22M02Y  C2022 06 28.85916820 56 02.00 -10 45 18.8          20.4 rVEM106N51
     K22M02Y KC2022 06 28.97441 20 57 20.41 -10 37 17.8          20.2 GXEM106221
     K22M02Y KC2022 06 28.97965920 57 24.10 -10 38 28.2          20.1 GXEM106I93
     K22M02Y KC2022 06 28.98231 20 57 25.42 -10 36 50.8          19.7 GXEM106221
     K22M02Y KC2022 06 28.98475320 57 27.42 -10 38 11.0          20.4 GXEM106I93
     K22M02Y KC2022 06 28.98984920 57 30.72 -10 37 53.0          20.0 GXEM106I93
     K22M02Y KC2022 06 28.99030 20 57 30.47 -10 36 23.6          19.3 GXEM106221
     K22M02Y !C2022 06 29.17261 20 59 29.17 -10 26 56.6          20.4 GVEM106J04
     K22M02Y !C2022 06 29.17479 20 59 30.57 -10 26 48.9          18.9 GVEM106J04
     K22M02Y KC2022 06 29.28837221 00 49.27 -10 20 16.6          20.2 VuEM106H21
     K22M02Y KC2022 06 29.29116821 00 51.08 -10 20 06.3          20.0 VuEM106H21
     K22M02Y KC2022 06 29.29396421 00 52.88 -10 19 56.5          20.1 VuEM106H21
     K22M02Y KC2022 06 29.29676021 00 54.69 -10 19 46.7          20.1 VuEM106H21
     K22M02Y KC2022 06 29.30002221 00 56.80 -10 19 35.8          20.2 VuEM106H21
     K22M02Y KC2022 06 30.01125 21 09 01.23 -09 36 26.3          19.4 RqEM106104
     K22M02Y KC2022 06 30.01877 21 09 06.26 -09 35 57.5          19.5 RqEM106104
     K22M02Y KC2022 06 30.02253 21 09 08.74 -09 35 43.6          19.7 RqEM106104
     K22M02Y KC2022 06 30.31388521 12 30.03 -09 17 25.0          20.5 VuEM106H21
     K22M02Y KC2022 06 30.31947521 12 33.76 -09 17 03.6          20.1 VuEM106H21

Observer details:
104 San Marcello Pistoiese.  Observers P. Bacci, M. Maestripieri.  Measurers
    P. Bacci, L. Tesi, G. Fagioli.  0.60-m F4 Reflector + CCD.
221 IAS Observatory, Hakos.  Observer D. Husar.  0.5-m f/6.7 Corrected Dall-
    Kirkham + CCD.
654 Table Mountain Observatory, Wrightwood-PHMC.  Observers N. Evans, P. Choi,
    N. Saini, C. Zhai, R. Trahan, M. Shao.  1.0-m Reflector + CCD.
F52 Pan-STARRS 2, Haleakala.  Observers J. Bulger, T. Lowe, A. Schultz, I.
    Smith.  Measurers K. Chambers, S. Chastel, T. de Boer, J. Fairlamb, H.
    Gao, M. Huber, C.-C. Lin, E. Magnier, Y. Ramanjooloo, R. Wainscoat, R.
    Weryk.  1.8-m Ritchey-Chretien + CCD.
H21 Astronomical Research Observatory, Westfield.  Observer R. Holmes.
    Measurers T. Linder, R. Holmes, L. Horn.  0.76-m f/3.0 astrograph + CCD.
H36 Sandlot Observatory, Scranton.  Observer G. Hug.  .56 meter Reflector +
    CCD.
I93 St Pardon de Conques.  Observer F. Losse.  0.40-m f/3.7 reflector + CCD.
J04 ESA Optical Ground Station, Tenerife.  Observers P. Ruiz, M. Micheli, D.
    Fohring, L. Conversi, D. Koschny.  Measurers R. Kresken, M. Micheli, A.
    Knofel, M. Busch, E. Schwab.  1.0-m f/4.4 reflector + CCD.
L01 Visnjan Observatory, Tican.  Observers K. Korlevic, L. Poropat.  Measurer
    K. Korlevic.  1.0-m f/2.9 reflector + CCD.
N51 GROWTH India Telescope, IAO, Hanle.  Observers K. Adithya Krishna, V.
    Swain, H. Kumar, R. Norboo, V. Bhalerao, G. C. Anupama, S. Barway.
    Measurers K. Adithya Krishna, V. Swain.  0.70-m f/6.5 Corrected Dall-
    Kirkham + CCD.

Orbital elements:
2022 MY2                                                 Earth MOID = 0.0252 AU
Epoch 2022 Aug. 9.0 TT = JDT 2459800.5                  Veres                   
M   3.37599              (2000.0)            P               Q                  
n   0.29710673     Peri.  105.77167     +0.68243230     +0.73093237             
a   2.2243053      Node   207.26432     -0.67466139     +0.62728658             
e   0.5336196      Incl.    0.61301     -0.28127952     +0.26879251             
P   3.32           H   23.63          G   0.15           U   8                  
Residuals in seconds of arc
220627 F52  0.1-  0.1-    220628 H21  0.0   0.2-    220628 I93  0.4+  0.3+
220627 F52  0.1-  0.0     220628 H36  0.9+  0.5+    220628 221  0.2-  0.4-
220627 F52  0.0   0.0     220628 H36  0.7+  0.0     220629 J04  0.1-  0.3-
220627 F52  0.0   0.1+    220628 H36  0.0   0.3-    220629 J04  0.1+  0.3-
220627 N51  0.7+  1.2+    220628 654  0.0   0.2-    220629 H21  0.0   0.0
220627 N51  0.6+  0.3+    220628 654  0.1-  0.2-    220629 H21  0.0   0.4+
220627 L01  0.6+  0.0     220628 654  0.0   0.1-    220629 H21  0.0   0.3+
220627 L01  0.3+  0.1-    220628 N51  0.6+  0.7-    220629 H21  0.0   0.2+
220627 L01  0.2+  0.5+    220628 N51  0.5+  0.6-    220629 H21  0.1+  0.4-
220627 L01  0.2-  0.6+    220628 N51  0.4+  0.5+    220630 104  0.5-  0.2-
220628 J04  0.2-  0.0     220628 221  0.2+  0.4+    220630 104  0.1+  0.8+
220628 J04  0.1-  0.1+    220628 I93  0.2-  0.2+    220630 104  0.1-  0.8+
220628 J04  0.1+  0.1-    220628 221  0.1+  0.1+    220630 H21  0.1-  0.1+
220628 H21  0.1-  0.4-    220628 I93  0.3+  0.1-    220630 H21  0.0   0.4+

Ephemeris:
2022 MY2                 a,e,i = 2.22, 0.53, 1                   q = 1.0374
Date    TT    R. A. (2000) Decl.     Delta      r    Elong.  Phase     V
2022 05 31    18 06 15.7 -21 14 51   0.2526  1.2512   157.7    17.9    22.1
...
2022 06 15    19 03 54.0 -18 44 57   0.1582  1.1640   158.1    19.0    20.9
...
2022 06 23    19 58 50.1 -15 18 07   0.1207  1.1244   152.1    25.0    20.4
...
2022 06 29    20 57 34.1 -10 36 12   0.1011  1.0988   142.7    34.1    20.3
2022 06 30    21 08 51.2 -09 36 01   0.09878 1.0949   140.7    36.0    20.3
2022 07 01    21 20 29.9 -08 32 11   0.09672 1.0911   138.6    38.0    20.3
...
2022 07 07    22 34 51.5 -01 17 00   0.09107 1.0708   124.4    51.5    20.5
...
2022 07 15    00 07 06.1 +07 44 28   0.1005  1.0509   107.4    67.4    21.1
...
2022 07 30    01 52 55.0 +16 00 05   0.1466  1.0375    94.6    77.3    22.2

M. P. C. Staff               (C) Copyright 2022 MPC           M.P.E.C. 2022-M106




More information about the Iaude mailing list